Flag for South Africa Weather past 2 weeks in Bloemfontein, South Africa

Now
59 °F

Sunny.


Feels Like: 60 °F
Forecast: 62 / 88 °F
Wind: 3 mph from Northeast

Location: Bloemfontein Airport

Current Time: Dec 23, 2014 at 6:13:04 AM

Latest Report: Dec 23, 2014 at 5:00 AM


Visibility: 10 mi

Pressure: 30.07 "Hg

Humidity: 82%

Dew point: 54 °F

Location of BloemfonteinLocation

Historic Weather in Bloemfontein — Graph

°F

Bloemfontein temperature yesterday

Maximum temperature yesterday: 90 °F (at 2:00 PM)
Minimum temperature yesterday: 57 °F (at 4:00 AM)
Average temperature yesterday: 74 °F

Past Weeks' High & Low Weather Summary

 TemperatureHumidityPressure
High90 °F (Dec 19, 4:00 PM)88% (Dec 9, 5:00 AM)30.24 "Hg (Dec 9, 5:00 AM)
Low50 °F (Dec 21, 5:00 AM)9% (Dec 20, 5:00 PM)29.92 "Hg (Dec 19, 4:00 PM)
Average70 °F57%30.06 "Hg
* Reported Dec 8 5:00 AM — Dec 23 5:00 AM, Bloemfontein, Weather by CustomWeather, © 2014

Note: Actual official high and low records may vary slightly from our data, if they occured in-between our weather recording intervals... More about our weather records

Advertising

Bloemfontein weather history for previous 24 hours

 ConditionsComfort  
Time TempWeatherWind HumidityBarometerVisibility
5:00 AM
Dec 23
63 °FSunny.3 mph73%30.07 "Hg10 mi
4:00 AM64 °FMild.3 mph68%30.07 "HgN/A
3:00 AM63 °FMild.5 mph68%30.07 "HgN/A
2:00 AM61 °FCool.6 mph72%30.09 "HgN/A
1:00 AM66 °FMild.No wind60%30.07 "HgN/A
12:00 AM68 °FMild.3 mph56%30.07 "HgN/A
11:00 PM
Dec 22
70 °FMild.3 mph46%30.09 "HgN/A
10:00 PM70 °FMild.6 mph50%30.07 "HgN/A
9:00 PM72 °FMild.8 mph44%30.07 "HgN/A
8:00 PM72 °FPassing clouds.24 mph47%30.09 "HgN/A
7:00 PM77 °FPassing clouds.25 mph30%30.04 "HgN/A
6:00 PM77 °FPassing clouds.24 mph34%30.04 "Hg3 mi
5:03 PM81 °FPassing clouds.29 mph28%30.01 "Hg2 mi
5:00 PM81 °FPassing clouds.13 mph26%30.01 "Hg4 mi
4:00 PM88 °FPassing clouds.15 mph21%30.01 "HgN/A
3:00 PM90 °FPassing clouds.14 mph20%30.01 "HgN/A
2:00 PM90 °FPassing clouds.8 mph15%30.07 "HgN/A
1:00 PM86 °FPassing clouds.12 mph25%30.07 "HgN/A
12:00 PM84 °FPassing clouds.7 mph27%30.07 "HgN/A
11:00 AM84 °FSunny.7 mph23%30.09 "Hg10 mi
10:00 AM79 °FPassing clouds.5 mph39%30.09 "HgN/A
9:00 AM75 °FPassing clouds.5 mph47%30.09 "HgN/A
8:00 AM72 °FSunny.1 mph50%30.09 "Hg10 mi
7:00 AM66 °FPassing clouds.5 mph60%30.07 "HgN/A
6:00 AM61 °FSunny.3 mph68%30.07 "Hg10 mi
Weather by CustomWeather, © 2014

See weather overviewHow to use our weather pages